Regional Weather Roundup
Issued by NWS Upton, NY

Current Version | Previous Version | Text Only | Print | Product List | Glossary On
Versions: 1 2 3 4 5 6 7 8 9 10 11 12 13 14 15 16 17 18 19 20 21 22 23 24 25 26 27 28 29 30 31 32 33 34 35 36 37 38 39 40 41 42 43 44 45 46 47 48 49 50
000
ASUS41 KOKX 201408
RWROKX

REGIONAL WEATHER ROUNDUP
NATIONAL WEATHER SERVICE NEW YORK NY
1000 AM EDT SUN AUG 20 2017

NOTE: "FAIR" INDICATES FEW OR NO CLOUDS BELOW 12,000 FEET WITH NO
SIGNIFICANT WEATHER AND/OR OBSTRUCTIONS TO VISIBILITY.

NYZ071-072-176-178-NJZ106-104-201500-
NEW YORK CITY METRO AREA

CITY           SKY/WX    TMP DP  RH WIND       PRES   REMARKS
Central Park   MOSUNNY   74  59  59 NW8       30.07R
Bronx Bot Gard   N/A     75  57  53 NW5       30.06R
LaGuardia APRT MOSUNNY   75  61  61 NW13      30.03R
Kennedy INTL   MOSUNNY   78  61  55 NW14      30.04R
Breezy Point     N/A     73 N/A N/A NW9G15      N/A
Newark/Liberty MOSUNNY   76  60  57 NW10      30.05R
Teterboro      SUNNY     76  60  57 N14G20    30.03R
$$

NYZ177-179-078>081-201500-
LONG ISLAND NEW YORK

CITY           SKY/WX    TMP DP  RH WIND       PRES   REMARKS
Jones Beach      N/A     73 N/A N/A NW10        N/A
Matinecock PT    N/A     73 N/A N/A NW12        N/A
Farmingdale    SUNNY     76  60  57 N9        30.03R
MacArthur/ISP  MOSUNNY   77  62  59 NW8       30.02R
Shirley        SUNNY     78  64  61 NW12      30.03R
Mt Sinai Harb    N/A     75 N/A N/A W5G10       N/A
Westhampton    SUNNY     76  61  59 NW10      30.03R
East Hampton   FAIR      74  63  66 NW8       30.00R
Montauk          N/A     76  65  68 W7        30.01R
$$

NYZ052-065-067-201500-
HUDSON VALLEY

CITY           SKY/WX    TMP DP  RH WIND       PRES   REMARKS
White Plains   MOSUNNY   75  61  61 NW9       30.03R
Larchmont Harb   N/A     72 N/A N/A W9          N/A
Croton On Huds   N/A     77 N/A N/A NW8         N/A
Newburgh       SUNNY     72  63  73 NW12      30.05S
Montgomery     SUNNY     74  59  59 NW10      30.05R
Poughkeepsie   MOSUNNY   75  59  57 NW14      30.02S
Albany         PTSUNNY   73  59  61 NW14G22   30.03R
$$

NJZ001-105-106-008-010-013-015-019>022-104-201500-
NEW JERSEY

CITY           SKY/WX    TMP DP  RH WIND       PRES   REMARKS
Newark/Liberty MOSUNNY   76  60  57 NW10      30.05R
Teterboro      SUNNY     76  60  57 N14G20    30.03R
Caldwell       MOSUNNY   74  61  63 VRB6      30.06R
Somerville     SUNNY     75  61  61 VRB5      30.05R
Linden         FAIR      74  61  63 NW10G17   30.06R
Perth Amboy      N/A     72 N/A N/A NW10        N/A
Sussex         MOSUNNY   73  62  68 N9        30.07S
Andover          N/A     70  60  70 VRB5      30.08R
Trenton        SUNNY     73  61  65 NW7       30.08R
Millville      SUNNY     77  65  66 NW8       30.09R
Atlantic City  SUNNY     77  62  59 NW13      30.08R
Wrightstown    SUNNY     75  62  64 N13       30.05R
Toms River     SUNNY     75  62  64 NW8       30.08R
Belmar         SUNNY     75  61  61 NW12      30.07S
$$

PAZ047>061-062-071-201500-
EASTERN PENNSYLVANIA

CITY           SKY/WX    TMP DP  RH WIND       PRES   REMARKS
Philadelphia   MOSUNNY   75  59  57 NW8       30.09S
Allentown      SUNNY     72  60  66 NW9       30.09R
Scranton       PTSUNNY   69  60  73 W6        30.11R
$$

CTZ002-004>006-009-010-012-RIZ004-006-007-MAZ004-011-015-201500-
SOUTHERN NEW ENGLAND
 IN CT

CITY           SKY/WX    TMP DP  RH WIND       PRES   REMARKS
Bradley INTL   MOSUNNY   76  60  57 NW12      29.99S
Hartford       MOSUNNY   76  60  57 NW14      29.99S
Danbury        SUNNY     73  60  63 NW9       30.05R
Wtrbury/Oxford PTSUNNY   71  62  73 NW7       30.04R
Norwalk Harbor   N/A     72 N/A N/A NW13        N/A
Bridgeport     SUNNY     77  62  59 NW10      30.01R
Meriden        PTSUNNY   75  60  59 NW13G20   30.01R
New Haven      MOSUNNY   76  63  64 VRB5      30.01R
Chester        FAIR      75  61  60 NW9G16    30.01R
Groton         SUNNY     77  61  57 NW16      29.98R
Wilimantic     SUNNY     75  61  61 NW13G18   29.99S

 IN RI

CITY           SKY/WX    TMP DP  RH WIND       PRES   REMARKS
Providence     SUNNY     78  62  57 W9        29.97R
Block Island   SUNNY     75  64  68 W8        29.99R
Westerly       SUNNY     78  62  57 NW8       29.98S
 IN MA

CITY           SKY/WX    TMP DP  RH WIND       PRES   REMARKS
Boston         MOSUNNY   79  59  50 W17       29.93S
Worcester      SUNNY     72  57  59 W13       29.99R
Westfield      PTSUNNY   74  60  61 NW14G20   29.99S
Provincetown   SUNNY     74  65  73 NW12      29.93S
Nantucket      SUNNY     78  67  68 W14       29.94R
$$

ANZ330-335-338-340-345-350-353-355-201500-
COASTAL MARINE OBSERVATIONS


STATION/POSITION TIME  SKY/WX   TEMP    WIND        PRES    VSBY  WAVE
                                AIR SEA DIR/SP/G                  HT/PER
                 (UTC)          (F)     (DEG/KT/KT) (MB)    (MI)  (FT/S)
NY HARB ENTRANCE 1250            72 75  310/ 16/ 17 1016.1          3/ 7
GREAT SOUTH BAY  1330            73 78  320/ 10/ 14   N/A
23 SSW MONTAUK P 1250            71 71              1015.8          3/ 7
15 E BARNEGAT LI 1330               76                N/A           3/ 6
HUDSON CANYON    1350            74 74  310/ 16/ 17 1016.3          4/ 4
KINGS POINT      1330            72 74  360/ 10/ 12 1016.8
EXECUTION ROCKS  NOT AVBL
WESTERN LI SOUND NOT AVBL
CENTRAL LI SOUND NOT AVBL
EASTERN LI SOUND NOT AVBL
ROBBINS REEF     1342                   320/ 13/ 17 1018.0
$$


>>>>>>>>>>>>>>>>>>>>>>>>>>>> KEY <<<<<<<<<<<<<<<<<<<<<<<<<<<
>                                                          <
>     SKY/WX - Sky Condition/Present Weather               <
>     TMP    - Temperature in Fahrenheit                   <
>     DP     - Dew Point in Fahrenheit                     <
>     RH     - Relative Humidity in Percent                <
>     WIND   - Direction (from) and Speed in MPH           <
>     PRES   - Mean Sea Level Pressure (inches of Hg)      <
>     WCI    - Wind Chill Index                            <
>     VSB    - VISIBILITY IN MILES                         <
>     HX     - HEAT INDEX                                  <
>     TC     - TEMPERATURE IN CELSIUS                      <
>     VRB    - VARIABLE WIND DIRECTION                     <
>                                                          <
>>>>>>>>>>>>>>>>>>>>>>>>>>>> KEY <<<<<<<<<<<<<<<<<<<<<<<<<<<



USA.gov is the U.S. government's official web portal to all federal, state and local government web resources and services.